Wind_Speed
42 40 39 37 37 37 37 38 38 38 39 40 41 41 42 44 47 50 53 56 58 60 62 64 66 68 70 72 73 74 75 77 79 80 85 89 95 99 103 105 104 100 93
42 40 38 37 37 37 38 38 38 39 39 40 40 42 44 46 49 53 55 57 59 62 64 66 68 70 71 72 74 75 78 81 84 86 89 95 98 101 101 98 91 82 73
41 39 37 37 37 37 38 38 39 39 39 40 41 43 46 49 52 54 57 59 61 63 65 67 69 71 72 73 75 78 81 85 90 93 95 97 98 97 91 81 71 63 56
39 37 37 36 37 37 38 38 39 39 39 40 42 45 48 51 53 56 58 60 63 65 67 69 70 71 73 75 78 82 87 91 95 97 98 96 92 83 74 62 53 48 45
36 36 35 36 36 37 37 38 38 38 39 41 44 47 50 53 55 57 59 62 64 66 68 69 71 73 75 79 84 88 93 96 98 98 95 88 77 65 55 48 42 39 39
34 34 34 34 35 36 36 36 37 38 41 43 46 49 52 54 56 59 61 63 65 67 68 70 72 75 79 84 89 93 96 97 96 92 84 72 59 50 43 39 37 35 34
32 32 32 33 33 34 34 35 37 40 42 45 48 50 53 55 58 60 62 64 66 67 69 72 75 79 84 89 92 95 95 92 87 78 67 55 47 41 37 35 34 33 34
29 29 30 30 31 32 34 36 38 41 44 46 49 52 54 57 59 61 63 64 66 68 72 75 80 85 90 93 93 92 87 80 71 61 53 45 40 38 36 34 33 32 32
25 26 27 28 30 32 34 37 39 42 45 47 50 53 55 58 60 62 63 65 67 70 75 80 85 90 92 93 90 84 75 64 55 48 43 40 38 36 36 35 34 33 31
23 24 25 27 29 32 35 37 40 43 46 49 51 54 56 58 60 62 64 66 69 74 79 85 90 92 92 88 81 70 59 50 44 40 38 37 37 37 37 37 36 35 33
21 23 25 27 30 33 36 38 41 44 47 50 52 55 57 58 60 63 66 70 74 79 84 89 91 90 84 76 66 55 47 40 37 36 35 36 36 37 37 37 38 37 35
20 23 25 28 31 34 37 40 42 45 48 50 53 55 57 59 61 65 70 75 80 84 88 90 87 80 71 61 52 44 39 35 34 35 35 36 36 36 36 37 37 37 35
21 23 26 29 32 35 38 41 44 46 49 50 52 54 57 60 64 68 74 79 84 87 88 84 76 66 56 48 42 37 34 34 34 34 35 36 36 36 35 34 34 34 32
22 25 28 31 34 37 40 42 45 47 49 51 52 55 58 63 68 72 77 82 85 85 80 71 61 52 45 39 35 33 33 33 33 34 35 35 35 35 34 32 30 29 27
24 27 30 33 35 38 41 43 45 47 49 51 54 57 62 66 72 77 81 84 84 78 68 57 48 41 36 33 32 32 32 33 34 34 34 34 33 33 31 29 27 26 23
26 29 31 34 37 39 41 44 46 48 50 53 57 62 67 72 76 80 83 82 76 65 53 43 37 33 31 30 30 31 32 32 32 33 32 32 31 30 28 27 26 23 21
28 31 33 35 38 40 42 44 46 50 54 58 62 67 72 76 79 81 80 73 62 50 39 33 30 28 28 28 28 30 31 32 32 31 31 30 30 29 27 25 24 22 19
30 32 34 36 38 40 42 45 48 52 56 62 67 72 76 78 79 77 70 59 47 36 30 27 26 25 26 27 28 30 31 32 32 31 31 30 29 28 26 24 21 18 16
31 33 35 37 39 41 44 47 51 56 60 65 70 74 76 77 75 68 56 44 34 28 24 23 22 23 25 27 29 30 31 31 31 31 30 29 28 26 24 21 19 16 14
31 33 35 38 40 43 46 50 55 60 65 69 72 73 74 72 65 54 42 31 25 21 19 19 20 22 24 27 29 30 31 31 31 30 30 28 26 24 22 19 17 14 12
32 34 36 39 42 46 50 55 59 64 67 70 72 72 70 63 52 40 30 22 18 16 16 17 19 21 24 27 29 30 30 31 30 29 29 27 25 23 20 18 15 12 10
33 35 38 41 45 49 54 59 63 66 69 70 71 69 62 51 40 29 20 15 13 13 14 16 18 21 24 26 28 29 30 30 30 29 29 27 25 22 19 16 13 10 8
34 37 41 45 49 53 58 62 65 68 70 70 67 60 50 39 28 19 13 10 11 12 14 15 18 21 24 27 28 29 30 30 30 30 28 27 24 21 18 14 11 8 6
36 40 44 48 53 57 61 64 67 69 70 66 59 49 38 27 17 11 8 9 10 12 14 16 19 22 24 27 29 30 31 31 31 30 28 25 22 19 15 12 9 6 3
40 44 48 52 56 60 63 67 69 69 65 57 48 37 26 16 9 6 6 8 9 11 13 16 19 22 25 27 29 30 31 31 31 30 28 25 22 18 15 11 8 5 4
43 47 51 56 59 63 66 68 68 65 57 46 36 25 15 8 4 4 6 7 9 11 13 16 19 22 24 27 28 29 30 31 31 31 29 26 23 20 16 13 9 7 7
Wind_Direction
233 238 242 248 252 256 259 262 265 269 273 276 279 282 284 287 290 292 295 297 298 299 299 300 301 301 302 303 303 303 303 303 304 304 304 303 303 303 302 302 301 300 298
232 237 242 247 252 256 260 264 268 272 276 279 281 284 286 289 292 294 296 298 299 300 301 302 302 303 304 304 304 305 305 305 305 305 305 305 304 304 303 303 301 299 298
232 237 243 248 253 257 262 266 271 275 278 280 283 286 289 292 294 296 298 299 300 301 302 303 304 305 305 305 306 306 306 306 306 306 306 306 305 305 304 302 300 299 298
232 238 244 250 255 259 264 269 273 276 279 282 286 289 291 294 296 297 299 300 302 303 304 305 306 306 306 307 307 307 307 307 307 307 307 307 307 305 304 302 300 298 298
233 239 246 252 256 261 266 270 274 277 281 285 288 291 293 295 297 299 301 302 303 304 305 306 307 307 308 308 308 308 308 308 308 309 309 309 307 305 303 301 300 298 298
235 242 248 253 258 263 267 271 275 280 284 287 290 293 295 297 299 301 302 303 304 306 306 307 308 308 309 309 309 309 309 310 310 310 310 309 308 305 303 302 300 298 298
238 244 249 254 259 264 269 273 279 283 287 290 293 295 297 299 301 302 304 305 306 307 308 308 309 309 310 310 310 310 311 311 311 311 310 309 307 305 304 303 302 302 302
239 244 249 255 261 267 272 278 283 287 290 293 295 297 299 301 303 304 305 307 308 308 309 310 310 311 311 311 311 312 311 311 311 311 311 309 307 305 305 305 305 304 305
239 246 252 259 266 272 278 282 286 290 293 295 297 299 301 303 304 306 307 308 309 310 310 311 311 312 312 312 312 313 313 312 311 310 310 309 309 308 307 308 308 307 308
244 252 259 266 273 278 283 287 290 293 295 297 299 301 303 304 306 307 308 309 310 311 311 312 313 313 314 314 314 314 314 313 311 310 310 310 310 310 310 310 309 309 309
253 261 268 274 279 284 287 290 293 295 297 300 302 303 305 306 308 309 310 311 312 313 313 313 314 314 314 314 315 315 315 313 311 310 310 310 310 310 309 309 309 310 309
265 271 276 281 285 288 291 293 295 298 300 302 304 306 307 309 310 311 312 313 313 314 314 315 315 314 314 314 315 315 315 314 313 312 312 311 311 310 310 310 310 310 309
274 279 283 286 289 291 294 297 299 301 302 304 306 308 309 311 312 313 313 314 314 315 315 315 315 315 315 315 316 316 316 315 315 314 313 313 312 312 311 311 310 310 309
283 286 288 291 293 296 298 300 302 303 305 307 309 310 311 312 312 313 314 314 315 316 316 315 315 315 315 316 317 318 318 318 317 317 316 315 314 314 313 312 311 310 308
290 292 294 296 298 300 302 303 305 306 308 309 310 311 312 312 313 314 315 316 317 317 317 316 316 316 318 320 321 322 323 323 323 322 321 320 318 317 316 315 315 313 309
296 297 299 300 302 303 305 306 308 309 311 311 312 313 314 314 315 316 317 318 318 318 317 317 317 319 321 323 325 326 327 327 327 327 326 325 323 321 319 318 318 316 312
300 301 302 303 305 307 308 310 311 312 313 314 314 315 315 316 317 318 318 319 319 318 318 319 320 322 324 327 328 329 329 329 329 328 328 327 325 324 321 319 318 317 314
303 304 305 307 308 310 311 312 313 314 314 315 316 316 317 318 319 319 320 319 319 319 320 322 324 326 329 330 331 331 331 330 330 329 329 328 327 326 323 321 319 317 314
306 307 308 310 311 312 313 314 315 315 315 316 317 318 319 320 320 321 321 320 320 321 323 326 329 331 333 334 334 334 334 334 333 332 331 330 329 329 326 323 321 318 315
309 310 311 312 313 314 315 316 316 317 317 318 319 320 321 321 321 322 322 321 322 325 329 333 336 338 339 339 339 339 338 338 337 336 334 333 331 330 328 326 324 321 318
311 312 313 314 315 316 317 317 318 319 320 321 321 322 323 323 323 322 322 323 326 331 337 340 343 343 343 343 343 343 342 342 341 340 339 338 334 332 330 328 326 322 321
313 314 315 316 317 318 318 319 320 321 322 323 323 324 324 324 324 324 324 327 333 339 344 346 348 349 349 349 348 347 346 345 344 343 342 341 339 336 334 332 329 325 323
315 316 317 318 319 319 320 321 322 323 324 324 324 325 325 325 325 325 329 336 343 347 350 351 352 352 352 352 352 352 351 350 349 347 345 344 343 341 339 337 334 330 328
316 318 319 320 320 321 323 324 324 324 325 325 325 325 325 326 327 331 340 348 353 355 356 356 356 355 356 356 356 356 356 356 356 354 353 352 350 349 349 350 348 348 3
318 319 320 321 323 324 325 325 325 325 325 325 326 326 327 328 333 344 355 0 2 2 1 2 1 0 360 360 0 1 2 2 3 3 4 4 5 6 7 9 16 33 62
320 321 322 324 325 326 326 326 326 326 326 326 326 327 328 333 347 1 7 7 5 5 4 5 4 3 3 4 5 6 7 8 9 10 12 15 17 20 23 30 43 61 79
Height
5673 5677 5681 5684 5685 5687 5687 5687 5686 5685 5683 5681 5679 5676 5672 5669 5665 5660 5655 5650 5644 5638 5631 5624 5616 5608 5600 5591 5582 5574 5564 5554 5547 5541 5527 5514 5499 5484 5471 5456 5441 5426 5414
5665 5670 5673 5676 5678 5679 5680 5679 5678 5677 5675 5672 5669 5666 5663 5659 5654 5649 5644 5638 5631 5624 5617 5609 5601 5592 5583 5574 5564 5555 5545 5535 5525 5518 5508 5492 5476 5458 5443 5428 5412 5398 5388
5659 5663 5667 5669 5671 5672 5672 5671 5670 5668 5666 5663 5660 5657 5653 5648 5643 5638 5632 5625 5618 5610 5602 5594 5585 5576 5566 5557 5547 5536 5526 5514 5502 5492 5482 5467 5450 5431 5417 5403 5390 5379 5371
5653 5657 5660 5662 5664 5664 5664 5663 5662 5660 5657 5654 5651 5647 5642 5637 5632 5626 5619 5612 5604 5596 5587 5578 5569 5559 5549 5539 5529 5517 5505 5492 5479 5465 5454 5440 5424 5407 5393 5383 5376 5366 5359
5648 5651 5654 5656 5657 5657 5656 5655 5653 5651 5648 5645 5641 5636 5631 5626 5620 5613 5607 5599 5590 5581 5572 5562 5553 5542 5532 5520 5509 5496 5482 5467 5453 5438 5425 5412 5398 5386 5376 5368 5362 5356 5349
5643 5646 5648 5649 5649 5649 5648 5647 5645 5642 5639 5635 5631 5626 5620 5614 5608 5600 5593 5585 5576 5566 5557 5547 5537 5526 5515 5503 5489 5474 5457 5441 5426 5412 5400 5388 5378 5369 5363 5357 5351 5346 5341
5637 5640 5641 5642 5642 5642 5641 5639 5637 5633 5630 5625 5621 5615 5609 5602 5595 5587 5579 5570 5561 5551 5541 5531 5521 5509 5496 5483 5469 5453 5435 5416 5401 5389 5380 5371 5364 5357 5352 5347 5341 5336 5330
5632 5634 5635 5636 5635 5634 5633 5631 5628 5624 5620 5615 5610 5604 5597 5589 5582 5574 5565 5556 5546 5536 5526 5515 5503 5490 5475 5461 5448 5432 5415 5398 5385 5374 5366 5359 5352 5347 5342 5337 5332 5327 5322
5627 5628 5629 5629 5628 5627 5625 5622 5619 5615 5610 5605 5598 5592 5584 5577 5569 5560 5551 5542 5533 5522 5511 5498 5484 5471 5456 5440 5426 5411 5396 5382 5370 5361 5355 5349 5343 5337 5332 5327 5322 5317 5313
5622 5623 5623 5622 5621 5619 5617 5613 5610 5605 5599 5593 5587 5580 5572 5564 5556 5547 5538 5529 5519 5508 5495 5479 5464 5448 5432 5415 5402 5391 5380 5370 5361 5353 5346 5340 5335 5329 5323 5317 5312 5307 5303
5617 5617 5617 5615 5614 5611 5608 5604 5600 5595 5589 5583 5576 5568 5561 5552 5543 5533 5523 5512 5501 5489 5475 5460 5444 5427 5412 5397 5385 5376 5367 5360 5353 5346 5340 5333 5327 5321 5315 5309 5303 5297 5292
5612 5611 5610 5608 5606 5603 5599 5595 5590 5584 5578 5571 5564 5555 5547 5538 5529 5519 5508 5495 5482 5470 5455 5439 5424 5409 5395 5383 5374 5366 5358 5352 5345 5339 5332 5326 5319 5313 5307 5301 5294 5288 5283
5606 5605 5603 5601 5598 5594 5590 5585 5580 5574 5567 5560 5552 5544 5535 5526 5516 5505 5493 5480 5465 5451 5436 5420 5405 5392 5382 5372 5364 5358 5351 5345 5338 5332 5325 5318 5312 5305 5299 5294 5287 5281 5275
5600 5599 5596 5593 5590 5585 5580 5575 5569 5563 5556 5548 5541 5532 5523 5513 5503 5491 5479 5465 5450 5434 5418 5404 5391 5380 5371 5364 5357 5351 5344 5338 5331 5324 5317 5311 5304 5297 5291 5286 5280 5274 5269
5594 5592 5589 5585 5581 5576 5570 5565 5558 5552 5544 5537 5529 5520 5511 5501 5488 5475 5461 5446 5431 5416 5402 5390 5380 5371 5364 5357 5351 5344 5338 5331 5324 5317 5310 5303 5296 5290 5283 5278 5273 5268 5263
5587 5584 5580 5576 5572 5566 5560 5554 5547 5540 5533 5525 5516 5506 5495 5484 5471 5457 5442 5426 5412 5400 5389 5379 5371 5364 5358 5351 5345 5338 5332 5325 5318 5311 5304 5297 5290 5284 5278 5272 5267 5262 5258
5580 5576 5572 5567 5562 5557 5551 5544 5537 5529 5520 5511 5502 5491 5479 5466 5453 5439 5424 5410 5398 5388 5379 5372 5365 5359 5353 5347 5340 5334 5327 5320 5313 5306 5299 5292 5285 5279 5273 5267 5262 5258 5254
5572 5568 5563 5558 5553 5547 5541 5534 5527 5519 5510 5499 5487 5475 5463 5449 5435 5422 5408 5396 5386 5378 5372 5366 5360 5354 5348 5342 5336 5330 5323 5315 5308 5301 5294 5287 5281 5274 5268 5263 5258 5254 5251
5564 5559 5555 5549 5544 5538 5531 5524 5516 5507 5497 5486 5474 5460 5446 5431 5417 5405 5394 5385 5378 5372 5367 5362 5356 5351 5345 5339 5332 5325 5318 5311 5304 5296 5289 5282 5276 5270 5264 5259 5255 5251 5248
5555 5551 5546 5541 5535 5528 5521 5513 5504 5494 5483 5471 5458 5446 5431 5417 5403 5392 5384 5377 5372 5367 5363 5358 5353 5348 5342 5336 5329 5321 5314 5307 5299 5292 5285 5278 5272 5266 5261 5256 5252 5249 5246
5547 5543 5537 5532 5525 5518 5510 5502 5492 5481 5468 5455 5442 5429 5416 5403 5392 5383 5377 5372 5368 5364 5360 5356 5351 5346 5340 5333 5326 5318 5311 5304 5296 5289 5281 5275 5268 5263 5258 5254 5250 5247 5245
5540 5535 5529 5523 5516 5508 5499 5489 5478 5466 5454 5440 5427 5413 5401 5390 5382 5375 5371 5368 5365 5361 5358 5354 5349 5344 5338 5332 5324 5317 5309 5301 5294 5286 5279 5272 5266 5260 5255 5251 5248 5246 5244
5532 5526 5520 5513 5506 5497 5487 5476 5464 5452 5439 5425 5413 5400 5389 5381 5375 5370 5367 5365 5363 5360 5356 5352 5348 5343 5337 5330 5323 5316 5308 5300 5292 5284 5276 5269 5263 5258 5253 5250 5247 5245 5243
5524 5518 5511 5503 5495 5485 5474 5462 5450 5437 5424 5411 5399 5389 5381 5374 5370 5367 5365 5364 5361 5359 5355 5351 5347 5342 5336 5329 5322 5314 5307 5299 5290 5282 5275 5268 5262 5257 5252 5249 5246 5245 5244
5516 5509 5501 5493 5483 5472 5461 5448 5435 5422 5410 5398 5389 5381 5375 5370 5368 5366 5365 5363 5361 5358 5355 5351 5347 5342 5336 5329 5322 5314 5307 5299 5291 5283 5275 5268 5262 5257 5253 5250 5247 5246 5245
5507 5499 5491 5481 5471 5460 5448 5434 5421 5409 5397 5388 5380 5375 5371 5369 5367 5366 5365 5363 5361 5358 5355 5351 5347 5342 5336 5330 5323 5316 5308 5301 5293 5285 5277 5271 5265 5260 5256 5252 5250 5249 5248